Tracking 30995 objects as of 5-Jul-2025
HD Live streaming from Space Station
objects crossing your sky now

STARLINK-32573

Track STARLINK-32573 now!
10-day predictions
STARLINK-32573 is classified as:


NORAD ID: 61725
Int'l Code: 2024-196U
Perigee: 481.4 km
Apogee: 483.4 km
Inclination: 53.2 °
Period: 94.1 minutes
Semi major axis: 6853 km
RCS: Unknown
Launch date: October 30, 2024
Source: United States (US)
Launch site: AIR FORCE EASTERN TEST RANGE (AFETR)
Your satellite tracking list
STARLINK-30895
Track 1 satellite(s)




NASA's NSSDC Master Catalog

Two Line Element Set (TLE):
1 61725U 24196U   25186.20575788 -.00001106  00000-0 -25221-4 0  9993
2 61725  53.1602 171.0232 0001452  92.7614 267.3553 15.30188355 39267
Source of the keplerian elements: AFSPC